Regional Weather Roundup
Issued by NWS Cleveland, OH

Home | Current Version | Previous Version | Text Only | Print | Product List | Glossary On
Versions: 1 2 3 4 5 6 7 8 9 10 11 12 13 14 15 16 17 18 19 20 21 22 23 24 25 26 27 28 29 30 31 32 33 34 35 36 37 38 39 40 41 42 43 44 45 46 47 48 49 50
000
ASUS41 KCLE 260802
RWRCLE
OHIO REGIONAL WEATHER ROUNDUP
NATIONAL WEATHER SERVICE CLEVELAND, OH
400 AM EDT TUE MAY 26 2015

NOTE: "FAIR" INDICATES FEW OR NO CLOUDS BELOW 12,000 FEET WITH NO
SIGNIFICANT WEATHER AND/OR OBSTRUCTIONS TO VISIBILITY.

OHZ001>008-015>018-024>027-034-035-043-044-260900-
   NORTHWEST OHIO

CITY           SKY/WX    TMP DP  RH WIND       PRES   REMARKS
DEFIANCE       PTCLDY    65  62  90 S6        30.04S
FINDLAY        PTCLDY    64  61  90 S8        30.06S
TOLEDO EXPRESS PTCLDY    64  61  90 S5        30.04F
TOLEDO EXEC    CLEAR     66  61  84 S8        30.06S
LIMA           CLOUDY    67  63  87 S7        30.07S
$$

OHZ009>014-019>023-028>033-038-089-260900-
   NORTHEAST OHIO

CITY           SKY/WX    TMP DP  RH WIND       PRES   REMARKS
CLE-HOPKINS    CLOUDY    68  61  78 S7        30.11S
CLE-LAKEFRONT  MOCLDY    72  61  68 SW10      30.07F
CUY CO. ARPT   NOT AVBL
LORAIN-ELYRIA  CLOUDY    66  61  84 S7        30.09S
ASHTABULA      PTCLDY    66  60  81 S5        30.11S
AKRON-CANTON   CLOUDY    69  61  75 S9        30.13S
WOOSTER        CLOUDY    68  60  75 S7        30.11F
MANSFIELD      CLOUDY    67  62  84 S7        30.10F
YOUNGSTOWN     CLOUDY    68  61  78 SW5       30.13R
$$

OHZ042-051>053-060>062-070>072-077>081-260900-
  SOUTHWEST OHIO

CITY           SKY/WX    TMP DP  RH WIND       PRES   REMARKS
CINC-COVINGTON MOCLDY    65  63  93 S5        30.10F
CINC-LUNKEN    PTCLDY    64  63  96 SW3       30.10F
HAMILTON       PTCLDY    69  64  84 S6        30.10S
DAYTON         CLOUDY    70  65  84 S10       30.10S
WRIGHT-PAT AFB CLOUDY    68  64  89 SE6       30.09S
DAYTON GENERAL MOCLDY    66  63  90 S8        30.09S
WILMINGTON     PTCLDY    65  62  90 S8        30.10F
$$

OHZ036-037-039>041-045>050-054>059-063>069-073>076-082>088-260900-
  CENTRAL AND SOUTHEAST OHIO

CITY           SKY/WX    TMP DP  RH WIND       PRES   REMARKS
COLUMBUS       PTCLDY    67  64  90 SE7       30.10F
OSU AIRPORT    PTCLDY    68  62  81 S6        30.10F
BOLTON FIELD   NOT AVBL
RICKENBACK AFB NOT AVBL
NEWARK         MOCLDY    64  62  93 CALM      30.11F FOG
MARION         CLOUDY    66  61  84 S7        30.09F
LANCASTER      CLEAR     65  63  93 SE6       30.11F
ZANESVILLE     MOCLDY    65  62  90 SE5       30.12F
NEW PHILLY     CLOUDY    67  64  90 SE5       30.13F
$$


USA.gov is the U.S. government's official web portal to all federal, state and local government web resources and services.